| time (UTC) | temp F | wind direction | speed MPH | gust MPH | rain 1hr in | rain 24hr in | rain mn in | humidity % | barometer mb |
| 20260509013054 | 55 | 215 | 3.0 | 11.0 | 0.01 | 0.08 | 0.08 | 89 | 1009.1 |
| 20260509011549 | 54 | 256 | 4.0 | 8.0 | 0.01 | 0.08 | 0.08 | 89 | 1009.1 |
| 20260509010053 | 54 | 232 | 5.0 | 9.0 | 0.01 | 0.08 | 0.08 | 89 | 1009.1 |
| 20260509004546 | 54 | 238 | 3.0 | 9.0 | 0.01 | 0.08 | 0.08 | 89 | 1009.2 |
| 20260509003044 | 54 | 245 | 5.0 | 8.0 | 0.01 | 0.07 | 0.07 | 89 | 1009.3 |
| 20260509001549 | 54 | 243 | 5.0 | 9.0 | 0.01 | 0.07 | 0.07 | 89 | 1009.3 |
| 20260509000049 | 55 | 224 | 3.0 | 7.0 | 0.01 | 0.07 | 0.07 | 90 | 1009.4 |
| 20260508234547 | 55 | 235 | 5.0 | 9.0 | 0.01 | 0.07 | 0.07 | 89 | 1009.5 |
| 20260508233047 | 55 | 234 | 5.0 | 8.0 | 0.01 | 0.06 | 0.06 | 89 | 1009.6 |
| 20260508231546 | 55 | 238 | 3.0 | 6.0 | 0.03 | 0.06 | 0.06 | 89 | 1009.6 |
| 20260508230047 | 55 | 186 | 1.0 | 3.0 | 0.04 | 0.06 | 0.06 | 89 | 1009.4 |
| 20260508224544 | 55 | 188 | 1.0 | 6.0 | 0.05 | 0.06 | 0.06 | 88 | 1009.5 |
| 20260508223047 | 55 | 299 | 2.0 | 7.0 | 0.05 | 0.05 | 0.05 | 87 | 1009.9 |
| 20260508221547 | 56 | 302 | 5.0 | 12.0 | 0.03 | 0.03 | 0.03 | 85 | 1010.1 |
| 20260508220041 | 56 | 333 | 5.0 | 9.0 | 0.02 | 0.02 | 0.02 | 83 | 1009.8 |
| 20260508214537 | 57 | 328 | 5.0 | 9.0 | 0.01 | 0.01 | 0.01 | 80 | 1009.6 |
| 20260508213044 | 58 | 333 | 6.0 | 12.0 | 0.00 | 0.00 | 0.00 | 77 | 1009.4 |
| 20260508211552 | 59 | 346 | 5.0 | 8.0 | 0.00 | 0.00 | 0.00 | 72 | 1009.2 |
| 20260508210040 | 59 | 348 | 3.0 | 8.0 | 0.00 | 0.00 | 0.00 | 73 | 1009.5 |
| 20260508204540 | 60 | 294 | 4.0 | 12.0 | 0.00 | 0.00 | 0.00 | 69 | 1009.6 |
| 20260508203046 | 62 | 291 | 4.0 | 9.0 | 0.00 | 0.00 | 0.00 | 64 | 1009.8 |
| 20260508201545 | 63 | 252 | 6.0 | 13.0 | 0.00 | 0.00 | 0.00 | 62 | 1010.1 |
| 20260508200100 | 63 | 252 | 5.0 | 11.0 | 0.00 | 0.00 | 0.00 | 60 | 1010.2 |
| 20260508194542 | 62 | 251 | 7.0 | 15.0 | 0.00 | 0.00 | 0.00 | 59 | 1010.3 |
| 20260508193122 | 63 | 258 | 10.0 | 18.0 | 0.00 | 0.00 | 0.00 | 58 | 1010.4 |
| 20260508191550 | 63 | 262 | 11.0 | 21.0 | 0.00 | 0.00 | 0.00 | 58 | 1010.6 |
| 20260508190043 | 63 | 254 | 15.0 | 26.0 | 0.00 | 0.00 | 0.00 | 56 | 1010.7 |
| 20260508184554 | 64 | 258 | 14.0 | 22.0 | 0.00 | 0.00 | 0.00 | 55 | 1010.7 |
| 20260508183109 | 64 | 260 | 12.0 | 24.0 | 0.00 | 0.00 | 0.00 | 55 | 1010.7 |
| 20260508181603 | 65 | 264 | 13.0 | 22.0 | 0.00 | 0.00 | 0.00 | 56 | 1010.7 |
| 20260508180049 | 65 | 251 | 14.0 | 23.0 | 0.00 | 0.00 | 0.00 | 54 | 1010.7 |
| 20260508174551 | 65 | 227 | 11.0 | 18.0 | 0.00 | 0.00 | 0.00 | 58 | 1010.8 |
| 20260508173047 | 65 | 276 | 9.0 | 18.0 | 0.00 | 0.00 | 0.00 | 56 | 1011.2 |
| 20260508171543 | 64 | 261 | 12.0 | 20.0 | 0.00 | 0.00 | 0.00 | 56 | 1011.4 |
| 20260508170053 | 63 | 273 | 10.0 | 19.0 | 0.00 | 0.00 | 0.00 | 59 | 1011.6 |
| 20260508164546 | 62 | 203 | 10.0 | 19.0 | 0.00 | 0.00 | 0.00 | 58 | 1011.9 |
| 20260508163037 | 62 | 252 | 8.0 | 18.0 | 0.00 | 0.00 | 0.00 | 59 | 1012.2 |
| 20260508161546 | 63 | 241 | 12.0 | 17.0 | 0.00 | 0.00 | 0.00 | 57 | 1012.3 |
| 20260508160043 | 62 | 237 | 10.0 | 16.0 | 0.00 | 0.00 | 0.00 | 59 | 1012.5 |
| 20260508154603 | 61 | 248 | 9.0 | 15.0 | 0.00 | 0.00 | 0.00 | 60 | 1012.8 |
| 20260508153041 | 60 | 288 | 9.0 | 16.0 | 0.00 | 0.00 | 0.00 | 60 | 1012.8 |
| 20260508151540 | 60 | 244 | 9.0 | 17.0 | 0.00 | 0.00 | 0.00 | 60 | 1012.8 |
| 20260508150040 | 60 | 256 | 9.0 | 18.0 | 0.00 | 0.00 | 0.00 | 60 | 1012.8 |
| 20260508144600 | 59 | 215 | 8.0 | 16.0 | 0.00 | 0.00 | 0.00 | 62 | 1013.0 |
| 20260508143042 | 58 | 242 | 9.0 | 16.0 | 0.00 | 0.00 | 0.00 | 61 | 1013.3 |
| 20260508141543 | 57 | 259 | 10.0 | 14.0 | 0.00 | 0.00 | 0.00 | 62 | 1013.4 |
| 20260508140042 | 56 | 251 | 8.0 | 12.0 | 0.00 | 0.00 | 0.00 | 63 | 1013.6 |
| 20260508134555 | 55 | 231 | 8.0 | 14.0 | 0.00 | 0.00 | 0.00 | 63 | 1013.6 |
| 20260508133049 | 54 | 225 | 5.0 | 12.0 | 0.00 | 0.00 | 0.00 | 64 | 1013.6 |
| 20260508131549 | 54 | 223 | 6.0 | 11.0 | 0.00 | 0.00 | 0.00 | 65 | 1013.6 |
| 20260508130042 | 52 | 222 | 5.0 | 9.0 | 0.00 | 0.00 | 0.00 | 68 | 1013.5 |
| 20260508124548 | 50 | 0 | 2.0 | 5.0 | 0.00 | 0.00 | 0.00 | 72 | 1013.5 |
| 20260508123051 | 50 | 197 | 3.0 | 5.0 | 0.00 | 0.00 | 0.00 | 72 | 1013.7 |
| 20260508121538 | 50 | 215 | 1.0 | 5.0 | 0.00 | 0.00 | 0.00 | 72 | 1013.6 |
| 20260508120043 | 50 | 198 | 2.0 | 4.0 | 0.00 | 0.00 | 0.00 | 72 | 1013.5 |
| 20260508114551 | 50 | 222 | 3.0 | 8.0 | 0.00 | 0.00 | 0.00 | 70 | 1013.3 |
| 20260508113040 | 50 | 237 | 3.0 | 7.0 | 0.00 | 0.00 | 0.00 | 69 | 1013.4 |
| 20260508111553 | 49 | 241 | 4.0 | 7.0 | 0.00 | 0.00 | 0.00 | 69 | 1013.3 |
| 20260508110049 | 49 | 221 | 3.0 | 7.0 | 0.00 | 0.00 | 0.00 | 71 | 1013.0 |
| 20260508104548 | 48 | 5 | 2.0 | 4.0 | 0.00 | 0.00 | 0.00 | 74 | 1013.2 |
| 20260508103043 | 48 | 0 | 0.0 | 3.0 | 0.00 | 0.00 | 0.00 | 72 | 1012.9 |
| 20260508101542 | 48 | 13 | 2.0 | 5.0 | 0.00 | 0.00 | 0.00 | 73 | 1012.9 |
| 20260508100048 | 49 | 295 | 2.0 | 6.0 | 0.00 | 0.00 | 0.00 | 71 | 1012.7 |
| 20260508094541 | 49 | 215 | 3.0 | 6.0 | 0.00 | 0.00 | 0.00 | 70 | 1012.6 |
| 20260508093046 | 49 | 238 | 3.0 | 8.0 | 0.00 | 0.00 | 0.00 | 69 | 1012.8 |
| 20260508091546 | 50 | 239 | 3.0 | 8.0 | 0.00 | 0.00 | 0.00 | 68 | 1012.8 |
| 20260508090106 | 50 | 249 | 5.0 | 11.0 | 0.00 | 0.00 | 0.00 | 67 | 1012.8 |
| 20260508084548 | 51 | 274 | 7.0 | 14.0 | 0.00 | 0.00 | 0.00 | 66 | 1012.9 |
| 20260508083048 | 51 | 243 | 4.0 | 12.0 | 0.00 | 0.00 | 0.00 | 65 | 1013.0 |
| 20260508081556 | 51 | 281 | 5.0 | 10.0 | 0.00 | 0.00 | 0.00 | 65 | 1013.1 |
| 20260508080040 | 51 | 239 | 6.0 | 10.0 | 0.00 | 0.00 | 0.00 | 65 | 1013.2 |
| 20260508074548 | 50 | 259 | 3.0 | 8.0 | 0.00 | 0.00 | 0.00 | 66 | 1013.1 |
| 20260508073102 | 51 | 242 | 4.0 | 10.0 | 0.00 | 0.00 | 0.00 | 65 | 1013.1 |
| 20260508071548 | 51 | 273 | 6.0 | 13.0 | 0.00 | 0.00 | 0.00 | 65 | 1013.0 |
| 20260508070052 | 51 | 248 | 7.0 | 16.0 | 0.00 | 0.00 | 0.00 | 64 | 1013.1 |
| 20260508064557 | 51 | 261 | 6.0 | 12.0 | 0.00 | 0.00 | 0.00 | 65 | 1013.3 |
| 20260508063051 | 50 | 219 | 6.0 | 11.0 | 0.00 | 0.00 | 0.00 | 66 | 1013.3 |
| 20260508061545 | 50 | 229 | 5.0 | 12.0 | 0.00 | 0.00 | 0.00 | 66 | 1013.3 |
| 20260508054547 | 50 | 252 | 5.0 | 10.0 | 0.00 | 0.00 | 0.00 | 65 | 1013.4 |
| 20260508053047 | 50 | 226 | 4.0 | 9.0 | 0.00 | 0.00 | 0.00 | 66 | 1013.4 |
| 20260508051620 | 51 | 232 | 5.0 | 9.0 | 0.00 | 0.00 | 0.00 | 67 | 1013.5 |
| 20260508050050 | 51 | 245 | 5.0 | 11.0 | 0.00 | 0.00 | 0.00 | 68 | 1013.5 |
| 20260508044550 | 50 | 246 | 4.0 | 9.0 | 0.00 | 0.00 | 0.00 | 70 | 1013.5 |
| 20260508043049 | 49 | 231 | 3.0 | 8.0 | 0.00 | 0.00 | 0.00 | 72 | 1013.5 |
| 20260508041546 | 49 | 235 | 3.0 | 8.0 | 0.00 | 0.00 | 0.00 | 74 | 1013.5 |
| 20260508040052 | 49 | 230 | 4.0 | 8.0 | 0.00 | 0.00 | 0.00 | 75 | 1013.5 |
| 20260508034551 | 48 | 205 | 3.0 | 7.0 | 0.00 | 0.00 | 0.00 | 77 | 1013.4 |
| 20260508033057 | 48 | 209 | 1.0 | 3.0 | 0.00 | 0.00 | 0.00 | 77 | 1013.4 |
| 20260508031556 | 48 | 193 | 2.0 | 7.0 | 0.00 | 0.00 | 0.00 | 77 | 1013.4 |
| 20260508030059 | 47 | 207 | 2.0 | 4.0 | 0.00 | 0.00 | 0.00 | 78 | 1013.4 |
| 20260508024613 | 47 | 0 | 1.0 | 3.0 | 0.00 | 0.00 | 0.00 | 78 | 1013.5 |
| 20260508023050 | 47 | 0 | 1.0 | 4.0 | 0.00 | 0.00 | 0.00 | 78 | 1013.4 |
| 20260508021550 | 48 | 0 | 0.0 | 2.0 | 0.00 | 0.00 | 0.00 | 77 | 1013.4 |
| 20260508020047 | 49 | 0 | 1.0 | 4.0 | 0.00 | 0.00 | 0.00 | 76 | 1013.3 |
| 20260508014545 | 49 | 196 | 2.0 | 5.0 | 0.00 | 0.00 | 0.00 | 75 | 1013.4 |